Temperature
16 16 16 16 15 15 15 15 15 15 15 15 15 15 15 15 15 15 15 15 15 15 15 15 15 15 15 15 15 15 15 15 15 15 15 15 15 15 15 16 16 16 16
16 16 16 15 15 15 15 15 15 15 15 15 15 15 15 15 15 15 15 15 15 15 15 15 15 15 15 15 15 15 15 15 15 15 15 15 15 15 15 15 15 15 15
16 16 16 15 15 15 15 15 15 15 15 15 15 14 15 14 14 14 14 14 14 15 15 15 15 15 14 14 14 14 14 14 14 14 14 15 15 15 15 15 15 15 15
16 15 15 15 15 15 15 15 15 15 15 15 14 14 14 14 14 14 14 14 14 14 14 14 14 14 14 14 14 14 14 14 14 14 14 14 14 14 14 14 14 15 15
16 15 15 15 15 15 15 15 15 15 15 14 14 14 14 14 14 14 14 14 14 14 14 14 14 14 14 14 14 14 14 14 14 14 14 14 14 14 14 14 14 14 14
15 15 15 15 15 15 14 14 14 14 14 14 14 14 14 14 14 14 14 14 14 14 14 14 14 14 14 14 14 14 14 13 14 14 14 13 13 14 14 14 14 14 14
15 15 15 15 15 14 14 14 14 14 14 14 14 14 14 14 14 14 13 13 13 14 13 14 13 13 14 14 14 14 13 13 13 13 13 13 13 13 13 13 13 13 13
15 15 14 14 14 14 14 14 14 14 14 14 14 14 14 14 13 13 13 13 13 13 13 13 13 13 13 13 13 13 13 13 13 13 13 13 13 13 13 13 13 13 13
15 14 14 14 14 14 14 14 14 14 14 13 14 14 14 14 14 13 13 13 13 13 13 13 13 13 12 13 13 13 13 13 13 13 13 13 13 13 13 13 13 13 13
14 14 14 14 14 14 14 14 14 13 13 13 13 13 14 13 14 13 13 13 13 13 12 12 12 12 12 12 12 12 13 13 12 12 12 12 12 12 12 12 12 12 13
14 14 14 14 14 14 14 14 14 13 13 13 13 13 13 13 13 13 13 13 12 12 12 12 12 12 12 12 12 12 12 12 12 12 12 12 12 12 12 12 12 12 12
14 14 14 14 14 14 14 14 13 13 13 13 13 13 13 13 13 13 13 13 12 12 12 12 12 12 12 12 12 12 12 12 12 12 12 12 12 12 12 12 12 12 12
14 13 13 13 13 13 13 13 13 13 13 13 13 13 13 13 13 12 13 12 12 12 11 11 11 11 11 11 11 12 12 12 12 12 12 12 12 12 12 12 12 12 12
13 13 13 13 13 13 13 13 13 13 13 13 13 13 12 12 12 12 12 12 12 12 12 11 11 11 11 11 11 11 11 11 11 12 12 12 12 12 12 12 12 12 12
13 13 13 13 13 13 13 13 13 13 13 12 12 12 12 12 12 12 12 12 12 12 12 11 11 11 11 11 11 11 11 11 11 11 11 11 11 11 11 11 11 11 11
13 13 13 13 13 13 13 13 13 13 12 12 12 12 12 12 12 12 11 11 11 11 11 11 10 10 10 10 11 10 10 11 11 11 11 11 11 11 11 11 11 11 11
13 13 13 13 13 12 12 12 12 12 12 12 12 12 12 12 12 11 11 11 11 11 11 10 10 10 10 10 10 10 10 10 10 11 11 11 11 11 11 11 11 11 11
13 13 13 13 12 12 12 12 12 12 12 12 12 12 12 11 11 11 11 11 11 10 10 10 10 10 10 10 10 10 10 10 10 10 10 10 10 10 10 11 10 10 10
13 13 12 12 12 12 12 12 12 12 11 11 11 11 11 11 11 11 11 11 10 10 10 10 10 10 9 9 9 9 10 10 10 10 10 10 10 10 10 10 10 10 10
12 12 12 12 12 12 12 12 11 11 11 11 11 11 11 11 11 11 11 10 10 10 10 10 10 10 9 9 9 9 9 9 9 9 10 10 10 10 10 10 10 10 10
12 12 12 12 12 12 11 11 11 11 11 11 11 11 11 11 11 11 10 10 10 10 10 10 10 9 9 9 9 9 9 9 9 9 9 9 9 9 9 9 10 10 10
12 12 12 11 11 11 11 11 11 11 11 11 11 11 11 11 11 11 10 10 10 10 10 10 9 9 9 9 9 9 8 8 8 9 9 9 9 9 9 9 9 9 9
11 11 11 11 11 11 11 11 11 11 11 10 10 10 10 10 10 10 10 10 10 10 9 9 9 9 9 9 9 9 8 8 8 8 8 8 8 8 9 9 9 9 9
11 11 11 11 11 11 11 11 11 10 10 10 10 10 10 10 10 10 10 10 10 9 9 9 9 9 9 9 9 8 8 8 8 8 8 8 8 8 8 8 9 9 9
11 10 10 10 10 10 10 10 10 10 10 10 10 10 10 10 10 10 9 9 9 9 9 9 9 9 9 8 8 8 8 8 8 8 8 8 8 8 8 8 8 9 9
10 10 10 10 10 10 10 10 10 9 9 9 9 9 9 9 9 9 9 9 9 9 9 9 8 8 8 8 8 8 8 7 8 7 8 7 7 7 7 8 8 8 8
Wind_Speed
2 3 3 3 3 4 3 3 3 4 4 5 5 5 5 6 6 6 7 10 9 9 8 7 8 7 7 6 5 5 5 6 6 6 7 6 5 5 5 6 5 5 5
2 2 3 3 3 3 4 3 4 4 4 4 4 5 5 5 5 6 6 8 11 10 10 9 8 7 8 8 7 6 5 5 6 6 7 7 6 6 6 6 6 6 6
3 3 3 3 3 3 4 4 4 4 3 3 4 5 5 5 5 6 6 6 7 10 11 10 9 9 8 8 8 7 7 6 6 6 6 6 6 6 6 5 6 6 6
4 3 2 2 3 3 3 3 2 3 3 3 3 3 4 4 5 5 6 6 6 6 8 10 10 9 9 8 8 7 7 6 6 6 5 5 5 5 5 5 5 5 6
2 3 2 2 3 2 2 2 2 2 3 3 3 3 3 4 4 4 5 6 6 5 6 7 8 8 8 8 7 7 6 5 5 5 5 5 5 4 5 5 4 4 4
2 2 2 2 3 2 2 2 2 2 2 2 3 4 4 3 3 4 4 4 5 5 5 5 4 6 7 8 7 6 5 5 5 5 5 4 4 4 4 4 4 4 4
1 2 1 2 2 1 1 2 2 3 2 2 2 3 3 3 3 3 3 3 4 5 5 5 4 3 4 6 6 5 5 4 4 4 3 3 3 3 4 5 5 5 4
1 2 2 2 2 1 2 2 2 1 1 0 0 0 1 2 2 2 2 2 3 4 4 4 4 4 3 3 5 5 6 5 4 4 4 3 2 2 3 4 4 4 4
1 1 1 2 2 2 2 2 2 1 1 0 1 1 1 0 0 1 2 1 2 2 2 3 4 4 4 4 4 5 6 6 5 5 5 4 3 3 4 4 4 4 3
2 2 1 2 2 1 2 2 1 1 1 1 0 1 2 0 1 0 1 1 2 2 2 2 3 4 4 4 5 7 7 7 6 6 6 6 4 4 3 3 3 2 2
2 2 1 2 2 2 2 2 2 2 1 2 1 1 1 1 2 1 1 0 1 1 1 2 2 2 3 4 4 7 8 7 6 6 6 5 5 3 2 2 2 1 1
1 2 2 2 2 2 2 2 2 2 2 2 2 2 1 1 1 1 2 1 1 1 1 1 1 2 3 3 4 7 7 7 6 6 6 5 4 3 2 1 1 1 2
2 2 2 2 2 2 2 2 2 2 2 2 2 2 2 2 2 2 1 1 1 1 0 0 1 2 2 2 3 4 5 5 5 5 6 5 4 3 2 1 1 0 1
2 2 2 2 2 2 2 2 2 2 2 2 2 3 3 2 2 2 2 1 2 1 1 1 1 1 2 2 3 3 2 4 4 4 4 5 4 3 2 1 1 0 1
1 2 2 3 2 3 3 3 2 3 2 2 2 3 2 2 2 2 2 2 2 3 2 1 0 0 1 1 2 2 2 4 4 4 4 5 5 4 3 2 1 1 2
2 2 3 3 3 3 3 3 3 2 3 2 2 2 2 2 2 2 2 2 3 3 3 2 1 1 0 1 1 2 2 2 2 3 3 4 4 4 2 2 1 1 1
2 3 3 3 3 3 3 3 3 3 4 3 3 3 3 2 2 2 2 2 3 2 2 2 1 1 1 1 1 2 2 2 1 2 3 3 3 3 3 2 1 1 1
2 2 3 3 3 3 3 4 4 4 4 4 4 3 3 2 2 2 2 3 3 2 2 2 2 2 2 1 1 2 1 1 1 2 2 3 3 3 2 2 1 1 2
3 3 3 3 3 4 4 4 4 4 4 4 4 4 3 3 3 3 3 3 2 2 2 3 2 2 2 1 2 2 2 2 2 0 1 1 2 2 2 3 2 1 2
3 3 3 3 3 4 4 4 4 4 4 4 4 4 4 4 4 4 3 3 3 3 3 3 3 3 3 2 3 3 2 2 2 2 1 2 2 1 2 2 2 2 2
3 3 3 3 3 3 3 3 4 4 4 4 4 4 4 3 2 3 3 4 4 3 3 3 3 3 3 3 3 3 3 3 3 3 3 3 2 2 2 3 3 2 2
2 2 2 2 3 3 1 2 4 4 4 5 5 5 4 4 4 4 4 4 4 5 4 4 4 4 5 4 4 4 3 3 3 2 4 3 3 3 3 2 1 2 3
2 2 2 3 3 2 2 3 5 5 5 5 5 5 4 4 5 5 5 6 5 5 5 6 6 5 5 4 5 5 5 5 4 2 3 4 3 4 3 2 1 3 3
2 2 3 3 3 2 1 2 4 6 5 5 6 6 5 5 5 5 5 5 5 5 6 6 6 5 4 4 5 5 5 5 4 3 3 4 3 4 3 3 4 4 4
2 3 3 3 4 3 2 3 4 4 4 5 5 5 6 6 3 4 6 6 5 4 4 4 3 2 1 2 3 4 4 4 5 4 3 4 4 4 4 4 4 7 7
3 3 3 4 4 4 2 3 5 4 4 4 3 4 4 5 4 5 7 6 6 5 4 4 4 5 5 5 6 6 5 5 5 4 3 3 3 3 3 3 3 4 6
Wind_Direction
87 85 82 78 72 72 75 64 62 65 58 52 47 49 55 54 56 61 69 65 60 63 69 74 76 75 75 80 83 82 79 73 69 70 64 58 54 54 54 46 51 66 76
89 82 76 73 69 66 65 63 69 69 61 56 51 50 49 53 56 61 63 73 69 61 59 64 72 70 70 70 74 79 78 76 72 66 58 53 50 51 52 51 55 67 74
87 83 80 80 78 76 76 72 72 67 66 64 59 54 54 48 52 59 59 63 73 73 62 56 59 65 65 66 70 73 74 71 66 62 60 55 49 47 49 53 57 64 72
91 89 91 88 85 81 84 86 74 73 71 65 61 59 61 60 56 57 61 62 63 67 71 60 55 57 58 59 65 68 68 62 55 55 54 50 47 47 50 53 65 68 72
96 102 98 103 105 96 89 88 75 70 74 69 69 66 62 60 59 60 63 60 60 60 62 69 63 56 52 52 58 60 61 57 52 51 50 48 44 48 51 55 71 74 78
110 109 116 119 112 104 93 92 92 89 86 79 73 70 68 67 61 56 55 57 52 51 49 50 63 73 61 48 47 48 50 53 51 52 53 50 45 47 49 52 71 74 82
131 123 132 127 116 103 109 98 99 114 106 92 94 87 95 78 66 67 54 53 56 50 47 47 47 48 69 69 47 37 31 41 47 48 46 39 39 52 58 60 72 72 77
138 139 138 138 135 133 139 128 129 123 119 108 74 111 128 126 80 64 59 57 50 52 43 40 40 40 37 48 59 46 29 24 23 31 22 21 40 77 77 72 77 74 74
166 160 154 152 152 165 157 165 176 173 181 222 335 324 307 26 54 109 64 61 50 42 36 30 27 27 29 33 42 50 36 25 21 23 19 35 63 88 88 77 74 70 74
198 182 177 179 175 176 173 188 194 206 223 225 249 304 313 6 268 123 131 78 48 31 31 24 20 22 24 35 41 35 35 32 28 26 29 39 55 76 83 84 75 71 85
205 197 205 211 204 195 198 204 213 237 240 265 256 258 277 233 247 268 267 302 28 25 28 13 19 24 22 33 36 40 39 33 28 23 23 26 37 53 70 70 62 76 126
207 200 213 229 228 213 207 213 227 235 254 268 262 239 248 260 253 256 261 253 322 350 1 19 32 41 41 39 34 38 32 30 24 20 17 14 13 17 32 44 52 91 128
214 214 213 225 233 227 219 219 227 236 240 246 260 265 266 275 265 256 244 263 295 295 293 190 76 55 38 31 34 25 32 27 18 13 13 13 8 3 1 9 30 106 152
233 225 216 221 220 219 223 222 237 231 242 242 252 256 258 260 250 235 232 242 268 263 244 248 120 58 20 15 21 344 27 34 17 12 10 13 11 7 3 4 356 314 195
241 236 220 223 217 215 224 222 233 230 236 246 248 246 250 244 233 234 227 236 262 269 272 235 277 4 338 356 347 322 349 42 24 18 23 22 22 23 27 34 38 47 98
217 226 227 221 220 211 214 219 229 229 227 231 246 244 237 234 220 223 224 241 263 266 272 270 265 257 330 318 334 315 350 37 36 26 22 22 21 22 21 33 59 94 103
228 230 224 220 218 212 212 213 228 223 227 223 220 222 223 223 219 220 223 235 245 252 255 266 258 227 247 264 295 298 310 316 18 43 17 11 12 9 8 7 27 132 154
236 236 230 226 220 223 222 221 227 230 230 227 222 219 220 207 221 222 225 232 234 238 236 243 243 228 237 251 266 274 280 296 316 48 5 347 345 347 350 346 313 237 220
230 230 232 234 224 224 232 234 233 231 230 230 225 221 217 213 223 220 220 228 228 219 223 224 236 240 239 234 257 266 272 275 284 275 309 312 337 345 343 335 316 275 244
239 235 238 241 234 229 234 236 235 233 231 229 226 224 221 222 230 229 224 227 225 217 214 214 220 224 228 239 245 249 255 261 274 272 282 288 274 271 284 295 292 263 234
246 242 244 246 239 234 235 240 241 239 235 232 228 227 223 226 255 249 241 230 220 219 218 221 223 230 229 226 235 240 251 258 264 273 278 272 261 268 264 251 252 259 246
242 248 245 244 239 235 191 236 254 242 240 238 234 231 221 214 224 231 248 249 244 232 229 230 236 239 242 236 233 239 245 253 263 254 264 267 265 270 268 266 264 255 247
227 241 243 242 246 234 169 219 249 257 245 244 240 233 229 226 221 231 222 221 236 250 253 247 248 253 252 241 232 237 242 253 265 264 263 265 256 265 264 259 204 228 242
230 240 251 252 254 251 201 228 243 252 251 248 244 241 237 235 228 230 227 227 232 231 233 242 249 257 260 247 240 247 249 250 260 241 240 266 264 268 270 251 204 219 233
242 249 254 259 259 247 198 231 247 252 256 256 250 249 246 244 222 223 228 228 232 236 223 239 271 263 261 246 245 232 231 236 249 246 225 261 270 276 270 253 219 209 226
246 255 256 261 266 268 215 226 250 256 259 262 262 261 251 253 229 221 232 233 237 237 227 218 222 218 220 215 226 236 237 243 252 250 215 241 258 267 268 253 253 238 233
Height
1549 1549 1548 1548 1548 1548 1547 1547 1547 1546 1545 1545 1544 1544 1543 1542 1542 1541 1540 1539 1538 1537 1537 1536 1536 1536 1535 1535 1534 1534 1534 1534 1534 1533 1533 1532 1532 1531 1529 1529 1527 1526 1525
1549 1549 1549 1548 1548 1548 1547 1547 1547 1546 1546 1545 1545 1544 1543 1543 1543 1542 1541 1540 1539 1539 1538 1538 1537 1537 1536 1536 1535 1534 1534 1534 1534 1533 1533 1532 1532 1531 1530 1529 1528 1527 1527
1549 1549 1549 1549 1548 1548 1548 1548 1547 1547 1546 1545 1545 1544 1544 1543 1543 1543 1542 1541 1541 1540 1540 1539 1538 1538 1537 1537 1536 1536 1535 1535 1534 1533 1533 1532 1532 1531 1530 1530 1529 1528 1528
1549 1548 1548 1548 1548 1548 1548 1548 1547 1547 1546 1546 1545 1545 1544 1544 1544 1543 1543 1542 1542 1542 1541 1540 1539 1539 1538 1538 1537 1536 1536 1535 1534 1534 1533 1533 1532 1531 1531 1530 1530 1529 1529
1549 1549 1548 1548 1548 1548 1548 1548 1548 1547 1546 1546 1545 1545 1545 1544 1544 1544 1544 1543 1543 1542 1542 1541 1540 1539 1539 1538 1537 1537 1536 1535 1535 1534 1533 1532 1532 1531 1531 1530 1530 1530 1530
1548 1548 1548 1548 1548 1548 1548 1548 1547 1547 1546 1546 1546 1545 1545 1545 1545 1544 1544 1544 1543 1543 1542 1542 1541 1540 1539 1538 1538 1537 1536 1536 1535 1534 1533 1532 1531 1531 1531 1530 1530 1530 1530
1548 1548 1548 1547 1547 1547 1547 1547 1547 1547 1546 1546 1546 1546 1546 1546 1545 1544 1544 1544 1544 1543 1542 1542 1541 1540 1539 1538 1537 1537 1536 1536 1535 1533 1532 1531 1530 1530 1530 1530 1530 1530 1530
1547 1547 1547 1547 1547 1546 1546 1546 1546 1546 1546 1546 1546 1546 1547 1547 1546 1545 1545 1544 1544 1543 1542 1542 1541 1540 1539 1538 1537 1536 1535 1535 1534 1533 1531 1528 1527 1527 1529 1529 1530 1530 1530
1546 1546 1546 1546 1546 1546 1546 1545 1545 1546 1546 1546 1546 1547 1546 1546 1546 1546 1545 1544 1543 1543 1542 1541 1541 1540 1539 1538 1537 1536 1535 1534 1533 1532 1530 1527 1525 1526 1528 1529 1530 1530 1530
1545 1545 1545 1545 1545 1545 1545 1545 1545 1545 1545 1545 1545 1545 1546 1545 1545 1545 1545 1544 1543 1542 1542 1541 1540 1539 1539 1538 1536 1535 1535 1534 1533 1532 1530 1528 1527 1527 1528 1529 1529 1529 1529
1544 1544 1544 1544 1544 1544 1544 1544 1544 1544 1544 1544 1544 1544 1544 1544 1544 1544 1544 1544 1543 1542 1541 1540 1539 1539 1538 1537 1536 1535 1534 1533 1532 1531 1530 1529 1528 1528 1528 1528 1528 1528 1528
1542 1542 1542 1542 1542 1542 1542 1542 1542 1542 1543 1543 1543 1543 1543 1543 1543 1543 1542 1542 1542 1541 1540 1539 1539 1538 1537 1536 1535 1534 1533 1533 1532 1531 1530 1529 1529 1528 1528 1528 1527 1527 1527
1541 1540 1540 1540 1541 1541 1541 1541 1541 1541 1541 1541 1541 1541 1541 1541 1541 1541 1541 1541 1540 1540 1539 1539 1538 1537 1536 1535 1534 1533 1533 1532 1531 1530 1529 1529 1528 1528 1527 1527 1527 1526 1526
1539 1539 1539 1539 1539 1539 1539 1539 1539 1539 1539 1540 1539 1539 1539 1539 1539 1539 1539 1539 1539 1539 1539 1538 1537 1536 1535 1534 1533 1532 1532 1531 1530 1530 1529 1528 1527 1527 1526 1526 1525 1525 1525
1537 1537 1537 1537 1537 1537 1537 1537 1537 1537 1537 1538 1538 1538 1537 1537 1537 1537 1537 1538 1538 1537 1537 1536 1536 1534 1533 1532 1532 1531 1531 1530 1529 1529 1528 1527 1526 1526 1525 1524 1524 1524 1524
1535 1535 1535 1535 1535 1535 1535 1535 1535 1535 1535 1535 1535 1535 1535 1535 1535 1535 1535 1535 1536 1536 1535 1534 1533 1533 1532 1531 1530 1530 1529 1528 1528 1527 1526 1526 1525 1525 1524 1523 1523 1523 1523
1533 1533 1533 1533 1533 1532 1532 1532 1533 1533 1533 1533 1533 1533 1533 1533 1533 1533 1533 1533 1533 1533 1532 1532 1531 1531 1530 1530 1529 1528 1528 1527 1526 1526 1525 1524 1524 1523 1523 1522 1521 1521 1522
1531 1531 1531 1531 1531 1530 1530 1530 1530 1530 1531 1531 1531 1531 1531 1531 1531 1531 1531 1531 1531 1531 1531 1529 1529 1529 1528 1528 1527 1526 1526 1525 1525 1524 1523 1523 1522 1522 1521 1520 1520 1520 1520
1529 1529 1529 1528 1528 1528 1528 1528 1528 1528 1528 1528 1528 1529 1529 1529 1529 1529 1529 1529 1529 1528 1528 1528 1527 1527 1526 1526 1525 1525 1524 1524 1523 1522 1522 1521 1520 1520 1519 1519 1518 1518 1518
1526 1526 1526 1526 1526 1526 1526 1525 1525 1525 1526 1526 1526 1526 1526 1526 1526 1526 1526 1526 1526 1526 1526 1526 1525 1525 1525 1524 1524 1523 1523 1522 1521 1521 1520 1519 1518 1518 1517 1516 1516 1516 1515
1523 1524 1524 1524 1523 1523 1523 1523 1523 1523 1523 1523 1523 1523 1523 1523 1523 1524 1524 1524 1524 1524 1524 1523 1523 1523 1523 1522 1522 1521 1521 1520 1519 1519 1518 1517 1517 1516 1515 1514 1514 1513 1513
1521 1521 1521 1521 1521 1521 1520 1520 1520 1520 1520 1520 1520 1520 1520 1520 1520 1520 1521 1521 1521 1522 1521 1521 1521 1521 1520 1520 1520 1519 1519 1519 1518 1517 1516 1515 1514 1514 1513 1512 1511 1510 1510
1518 1518 1518 1518 1518 1518 1518 1518 1517 1517 1517 1517 1517 1518 1517 1517 1517 1518 1518 1518 1518 1518 1519 1519 1519 1518 1518 1518 1517 1517 1516 1516 1515 1514 1514 1513 1512 1511 1510 1509 1508 1508 1507
1515 1515 1515 1515 1515 1515 1515 1515 1514 1514 1514 1514 1514 1515 1514 1514 1514 1515 1515 1515 1515 1515 1515 1515 1515 1515 1515 1515 1514 1514 1514 1513 1512 1511 1511 1511 1510 1509 1507 1506 1505 1505 1504
1513 1513 1513 1512 1512 1512 1512 1511 1511 1511 1511 1511 1511 1511 1511 1511 1511 1511 1512 1512 1511 1511 1511 1511 1511 1511 1511 1511 1511 1511 1510 1510 1509 1509 1508 1507 1506 1505 1504 1503 1502 1502 1501
1510 1510 1510 1509 1509 1509 1508 1508 1508 1508 1508 1507 1507 1507 1507 1507 1507 1507 1508 1508 1507 1507 1507 1507 1507 1507 1507 1507 1507 1507 1507 1507 1506 1506 1504 1504 1503 1502 1501 1500 1500 1499 1498